📊 Raw Sensor Data
Showing records 44201 to 44225 of 85,032 total
| ID | Distance (ft) | Battery V | Battery A | Int Temp (°F) | Int Humid (%) | Ext Temp (°F) | Solar V | RSSI | SNR | Time Stamp |
|---|---|---|---|---|---|---|---|---|---|---|
| 40844 | 15.4 | 3.97 | 5 | 58 | 42 | 59 | 5.10 | -69 | 8 | 05/17/2025 08:00 AM |
| 40843 | 15.4 | 4.01 | 32 | 58 | 42 | 59 | 4.50 | -68 | 8 | 05/17/2025 07:45 AM |
| 40842 | 15.4 | 4.04 | 24 | 58 | 41 | 58 | 4.50 | -69 | 7 | 05/17/2025 07:30 AM |
| 40841 | 15.4 | 4.01 | 27 | 58 | 41 | 57 | 4.50 | -69 | 8 | 05/17/2025 07:15 AM |
| 40840 | 15.4 | 3.98 | 30 | 57 | 41 | 60 | 4.50 | -67 | 8 | 05/17/2025 07:00 AM |
| 40839 | 15.4 | 3.98 | -6 | 55 | 42 | 55 | 4.50 | -69 | 8 | 05/17/2025 06:45 AM |
| 40838 | 15.4 | 3.95 | 0 | 55 | 42 | 55 | 4.50 | -68 | 7 | 05/17/2025 06:30 AM |
| 40837 | 15.4 | 3.88 | -40 | 55 | 42 | 55 | 4.50 | -67 | 8 | 05/17/2025 06:15 AM |
| 40836 | 15.5 | 3.89 | -8 | 55 | 42 | 55 | 3.50 | -68 | 8 | 05/17/2025 06:00 AM |
| 40835 | 15.5 | 3.90 | -5 | 55 | 42 | 55 | 0.90 | -68 | 7 | 05/17/2025 05:45 AM |
| 40834 | 15.2 | 3.90 | -5 | 55 | 42 | 56 | 0.10 | -69 | 8 | 05/17/2025 05:30 AM |
| 40833 | 15.2 | 3.95 | -5 | 55 | 42 | 56 | 0.10 | -69 | 8 | 05/17/2025 05:15 AM |
| 40832 | 15.2 | 3.90 | -5 | 55 | 42 | 56 | 0.00 | -70 | 8 | 05/17/2025 05:00 AM |
| 40831 | 15.2 | 3.90 | -5 | 55 | 42 | 56 | 0.00 | -71 | 8 | 05/17/2025 04:45 AM |
| 40830 | 15.2 | 3.95 | -5 | 54 | 42 | 56 | 0.00 | -68 | 7 | 05/17/2025 04:30 AM |
| 40829 | 15.2 | 3.96 | -5 | 54 | 42 | 55 | 0.00 | -69 | 8 | 05/17/2025 04:15 AM |
| 40828 | 15.2 | 3.90 | -5 | 54 | 42 | 55 | 0.10 | -69 | 7 | 05/17/2025 04:00 AM |
| 40827 | 15.5 | 3.90 | -5 | 54 | 43 | 55 | 0.10 | -68 | 8 | 05/17/2025 03:45 AM |
| 40826 | 15.5 | 3.96 | -5 | 54 | 43 | 55 | 0.00 | -68 | 7 | 05/17/2025 03:30 AM |
| 40825 | 15.5 | 3.90 | -5 | 54 | 43 | 55 | 0.00 | -69 | 8 | 05/17/2025 03:15 AM |
| 40824 | 15.5 | 3.90 | -5 | 54 | 43 | 55 | 0.00 | -68 | 8 | 05/17/2025 03:00 AM |
| 40823 | 15.4 | 3.96 | -5 | 55 | 43 | 55 | 0.00 | -69 | 8 | 05/17/2025 02:45 AM |
| 40822 | 15.5 | 3.90 | -5 | 55 | 43 | 55 | 0.00 | -69 | 8 | 05/17/2025 02:30 AM |
| 40821 | 15.4 | 3.90 | -5 | 55 | 43 | 56 | 0.00 | -69 | 8 | 05/17/2025 02:15 AM |
| 40820 | 15.4 | 3.90 | -5 | 55 | 43 | 56 | 0.00 | -68 | 8 | 05/17/2025 02:00 AM |